{"data":{"norad_id":68671,"epoch":"2026-09-19T01:51:19.016352Z","epoch_age_seconds":166688,"freshness":"FRESH","line1":"1 68671U 26077K   26262.07730343  .00014848  00000+0  46113-3 0  9997","line2":"2 68671  97.2856 131.9710 0001132  97.5862 262.5509 15.33458786 24794","mean_motion":15.33458786,"eccentricity":0.0001132,"inclination_deg":97.2856,"raan_deg":131.971,"arg_perigee_deg":97.5862,"mean_anomaly_deg":262.5509,"bstar":0.00046113,"rev_number":2479,"period_min":93.90536042747,"perigee_km":464.72745739609,"apogee_km":466.27685730131,"semimajor_km":6843.6391573487,"source":"CELESTRAK","updated_at":"2026-09-20T09:00:43.951430Z"}}